SCP
0 0 0 0 0 0 0 0 0 -0 -0 0 0 0 -0 -0 0 0 0 0 0 -0 -0 0 0 -0 -0 0 0 0 0 0 2 2 1 1 0 0 0 0 0 0 0 0
0 0 0 0 0 0 0 0 0 -0 -0 0 -0 -0 -0 -0 0 0 0 0 0 0 -0 -0 0 0 -0 0 0 0 0 0 1 1 1 1 1 0 0 0 0 0 0 0
0 0 0 0 0 0 0 0 0 0 -0 -0 0 0 0 -0 0 0 0 0 0 0 0 0 0 0 0 -0 0 0 0 0 1 1 2 0 0 0 0 0 0 0 0 0
0 0 0 0 0 0 0 0 0 -0 0 0 0 0 0 0 0 0 0 0 0 0 0 0 0 0 0 0 0 0 0 0 1 1 1 1 0 0 0 0 0 0 0 0
0 0 0 0 0 0 0 -0 -0 0 0 0 0 0 0 0 0 0 0 0 0 -0 0 0 0 0 0 0 0 0 0 0 1 1 1 1 0 0 0 0 0 0 0 0
0 0 0 0 0 0 0 -0 -0 0 0 0 0 0 0 0 -0 -0 -0 0 0 0 0 0 0 0 0 0 0 0 0 0 1 1 1 1 1 0 0 0 0 0 0 0
0 0 0 0 0 0 0 0 0 0 0 0 0 0 0 0 0 0 -0 0 0 0 0 0 0 0 0 0 0 0 0 0 1 1 1 1 1 0 0 0 0 0 0 0
0 0 0 0 0 0 0 0 0 0 0 0 0 0 0 0 0 -0 0 0 0 0 0 0 0 0 0 0 0 0 0 0 0 1 1 1 1 1 0 0 0 0 0 0
0 0 0 0 0 0 0 0 0 0 0 0 0 0 0 -0 -0 0 0 0 0 -0 -0 -0 0 0 0 0 0 0 0 0 0 0 0 1 1 1 0 0 0 0 0 0
0 0 0 0 0 0 0 0 0 0 0 0 0 0 0 -0 -0 -0 0 0 -0 -0 -0 -0 0 0 0 0 0 0 0 0 0 0 0 0 0 0 0 0 0 0 0 0
0 0 0 0 0 -0 0 0 0 0 0 0 0 0 0 -0 -0 -0 0 -0 -0 -0 -0 -0 0 0 0 0 0 0 0 0 0 0 0 0 0 0 0 0 0 0 0 0
0 0 0 0 0 0 0 0 0 0 0 0 0 0 0 0 0 0 0 -0 -0 -0 -0 -0 -0 0 0 0 0 0 0 0 0 0 0 0 0 0 0 0 0 0 0 0
0 0 0 0 0 0 0 0 0 0 -0 0 0 0 0 -0 0 0 0 -0 -0 -0 -0 -0 -0 0 0 0 0 0 0 0 0 0 0 0 0 0 0 0 0 0 0 0
0 0 0 0 0 0 0 -0 0 0 0 0 0 0 -0 -0 0 0 0 -0 -0 -0 0 -0 -0 0 0 0 0 0 0 0 0 0 0 0 0 0 0 0 0 0 0 0
0 0 0 0 0 0 0 -0 -0 0 0 0 0 0 0 -0 0 0 0 0 -0 0 0 -0 -0 0 0 0 0 0 0 0 0 0 0 0 0 0 0 0 0 0 0 0
0 0 0 -0 0 0 0 0 -0 0 0 0 -0 -0 0 0 -0 0 0 0 -0 -0 -0 -0 -0 0 0 0 0 0 0 0 0 0 0 0 0 0 0 0 0 0 0 0
0 0 0 0 0 -0 0 0 0 0 0 0 -0 -0 -0 0 0 0 0 0 0 0 0 0 -0 0 0 0 0 0 0 0 0 0 0 0 0 0 0 0 0 0 0 0
0 0 0 0 0 0 0 0 0 0 -0 -0 0 -0 0 0 0 -0 0 0 -0 -0 -0 -0 0 0 -0 0 0 0 0 0 0 0 0 0 0 0 0 0 0 0 0 0
0 0 0 0 0 0 0 0 0 0 -0 0 -0 0 0 -0 0 -0 -0 -0 0 0 -0 -0 -0 -0 0 0 0 0 0 0 0 0 0 0 0 0 0 0 0 0 0 0
0 0 0 0 0 0 0 0 0 0 0 -0 0 0 -0 -0 -0 0 -0 -0 0 0 0 0 -0 0 0 -0 0 0 0 0 0 0 0 0 0 0 0 0 0 0 0 0
0 0 0 0 0 0 0 0 0 0 -0 -0 -0 -0 -0 -0 0 -0 -0 0 0 0 0 -0 0 0 0 0 0 0 0 0 0 0 0 0 0 0 0 0 0 0 0 0
0 0 0 0 0 0 0 0 -0 -0 -0 -0 -0 -0 -0 -0 -0 -0 -0 0 0 -0 -0 -0 -0 -0 0 -0 -0 -0 -0 0 0 0 0 0 0 0 0 0 0 0 0 0
0 0 0 0 0 0 -0 0 0 0 0 0 0 0 0 0 -0 -0 -0 -0 -0 -0 -0 -0 -0 0 -0 -0 -0 -0 -0 -0 -0 -0 0 0 0 0 0 0 0 0 0 0
0 0 0 0 0 0 0 0 0 0 0 0 0 0 0 0 0 0 -0 -0 -0 -0 0 0 -0 0 0 0 -0 -0 -0 -0 -0 -0 0 0 0 0 0 0 0 0 0 0
0 0 0 0 0 0 0 0 0 0 0 0 0 0 0 0 0 0 -0 -0 0 -0 0 -0 -0 -0 0 -0 -0 -0 -0 -0 -0 -0 -0 0 0 0 0 0 0 0 0 0
0 0 0 0 0 0 0 0 0 0 0 0 0 0 0 0 0 0 0 -0 -0 -0 -0 -0 -0 -0 -0 -0 -0 -0 -0 -0 -0 -0 -0 -0 0 0 0 0 0 0 0 0
Wind_Speed_500mb
7 5 13 23 20 25 28 29 42 59 51 37 45 49 59 53 52 50 68 68 70 75 75 79 78 74 95 83 73 60 64 48 74 79 83 77 82 83 89 92 86 90 93 79
8 15 22 12 14 22 34 34 51 55 34 20 52 64 56 55 52 53 60 62 63 69 75 65 73 76 76 87 85 70 60 73 65 79 79 80 77 82 86 88 86 79 85 92
11 23 17 22 23 32 42 24 39 40 58 39 34 43 33 35 28 40 50 60 61 61 65 78 84 79 76 71 87 79 64 58 63 75 79 82 81 83 79 90 90 85 87 91
12 10 16 23 29 27 33 11 27 43 30 27 15 30 36 19 17 29 29 44 46 60 72 80 81 81 79 70 72 75 72 56 61 68 75 81 80 80 80 85 85 93 95 89
20 17 26 29 20 21 24 23 30 39 35 29 10 13 10 18 18 34 33 48 60 56 55 71 78 78 78 70 65 62 65 65 53 64 75 71 75 71 62 62 69 79 83 87
31 19 6 14 13 11 28 17 32 4 5 2 15 11 2 8 20 27 31 48 57 58 54 38 50 68 68 69 59 54 50 50 56 60 75 75 70 68 60 59 62 72 78 77
12 7 7 8 14 12 16 12 9 10 8 11 19 23 9 16 21 24 34 46 54 59 49 39 30 33 47 48 57 51 49 55 47 60 73 80 75 71 68 64 65 68 77 78
3 19 4 7 6 13 4 9 6 13 11 34 24 8 7 15 13 29 37 44 50 56 61 34 29 19 14 26 34 46 48 46 47 62 69 79 77 71 71 66 68 67 74 72
2 13 12 28 14 13 12 1 8 10 2 5 7 5 8 31 33 29 30 43 47 55 61 48 25 21 7 13 20 30 35 39 50 62 65 76 75 71 67 57 57 46 52 58
9 19 13 5 9 4 11 3 7 5 11 12 10 8 8 31 36 36 34 31 49 54 60 55 30 17 13 17 20 22 26 34 48 61 63 70 67 56 48 50 56 55 58 63
7 9 16 11 4 10 7 4 7 7 5 6 10 9 6 17 26 30 30 43 48 50 56 50 36 26 18 25 26 32 30 33 37 47 56 62 58 56 56 50 54 56 58 60
13 7 9 22 23 10 10 7 4 6 9 8 6 11 3 11 19 24 29 42 46 48 53 44 40 35 35 32 35 32 28 22 27 28 39 42 44 43 41 44 47 43 49 50
8 6 10 19 12 9 3 6 9 10 7 8 5 9 5 17 22 29 29 42 46 47 51 45 48 50 48 44 44 32 27 23 22 23 30 30 37 36 38 45 46 40 43 57
20 9 22 19 27 3 27 29 25 10 3 6 12 19 14 19 22 24 36 42 43 46 51 48 50 55 56 53 49 41 28 23 17 16 19 27 33 38 41 42 42 47 51 54
13 9 6 24 36 30 33 34 30 13 10 9 9 12 14 11 14 19 31 40 41 45 49 49 50 55 56 53 52 50 41 31 24 13 6 10 16 23 30 36 40 45 46 51
6 7 4 40 25 7 11 18 18 15 7 11 11 14 4 4 17 25 29 36 38 45 49 46 47 52 55 52 48 48 46 44 35 26 19 13 3 8 15 22 30 33 43 45
9 5 2 12 5 11 7 10 8 6 7 7 6 8 4 3 9 15 33 33 32 39 42 44 49 51 50 49 46 45 42 39 37 35 30 24 14 2 11 21 26 28 31 33
17 9 6 11 12 6 12 3 8 12 11 16 11 9 5 6 15 25 25 32 39 43 46 46 46 47 47 44 43 42 40 40 41 35 30 26 19 15 8 3 14 28 32 30
33 14 6 4 5 13 8 6 10 8 11 14 11 2 5 8 14 1 22 19 20 26 33 39 41 42 43 46 45 44 44 42 35 34 30 23 19 16 16 11 5 5 16 27
18 20 9 4 3 9 12 5 10 7 7 8 9 6 4 9 4 7 15 17 19 23 29 34 37 38 39 42 42 39 38 35 36 35 31 27 23 19 16 14 11 8 3 9
7 6 20 6 7 15 11 6 13 8 11 9 13 11 9 7 7 8 7 11 18 21 25 28 31 35 36 34 34 35 33 37 35 30 27 26 25 22 19 15 11 9 7 5
13 12 7 5 3 14 14 9 9 10 6 15 22 18 14 17 13 10 9 10 13 17 21 25 30 34 34 32 30 30 31 31 29 28 28 27 26 23 20 18 15 11 8 8
3 10 8 13 10 8 32 7 16 13 9 15 25 24 22 21 18 16 12 9 13 16 20 26 31 34 36 36 34 30 30 27 26 26 25 25 24 22 20 17 15 14 12 10
7 6 5 3 5 10 25 45 31 25 21 15 23 29 29 27 23 19 13 9 9 13 19 26 30 35 40 39 37 35 33 30 25 22 22 22 22 23 20 18 16 14 14 12
7 11 10 8 10 13 16 18 26 26 24 20 26 31 33 31 29 23 18 10 4 8 16 22 30 36 40 40 37 35 32 29 25 23 21 19 20 19 20 21 18 15 13 14
9 13 8 9 8 8 19 22 14 19 29 31 35 35 35 35 33 28 22 14 6 3 11 16 24 30 32 32 29 27 27 25 24 23 21 21 19 19 18 18 16 18 16 13
Wind_Direction_500mb
243 237 242 259 213 250 266 274 276 281 288 285 285 283 275 276 270 264 262 259 255 253 260 261 255 249 251 257 256 250 247 245 231 228 225 218 222 223 229 232 224 208 199 195
345 241 269 247 252 262 271 275 280 287 284 299 298 284 284 282 273 266 263 260 253 254 255 255 258 259 248 250 255 254 252 245 242 230 224 217 217 224 227 233 222 215 208 200
182 257 293 281 277 303 283 267 278 276 305 301 285 282 281 289 276 270 270 271 263 252 255 260 261 258 255 245 250 254 247 244 241 231 227 221 223 223 214 217 220 211 218 217
235 273 269 276 285 294 283 232 280 295 303 296 0 290 309 301 25 13 349 341 320 317 269 254 253 255 258 252 240 249 248 245 234 229 223 223 220 212 210 215 227 215 212 215
257 285 292 296 273 291 264 295 281 280 275 285 281 236 291 28 355 345 333 328 327 319 316 255 251 257 254 250 247 242 243 244 236 224 223 226 225 221 218 223 231 231 226 217
257 260 239 237 290 258 287 314 306 7 101 7 255 209 282 14 334 325 326 327 329 333 324 302 262 258 256 246 248 247 236 233 235 225 222 225 225 227 224 230 234 238 234 231
304 247 260 209 350 342 40 22 326 340 351 239 308 301 299 1 348 330 327 326 331 337 334 331 314 252 238 235 235 239 229 229 232 224 221 225 223 222 226 230 234 233 227 225
297 314 234 192 172 238 289 153 270 305 312 300 312 244 170 43 3 342 332 329 333 339 339 335 334 329 230 205 212 226 226 224 231 225 217 215 223 225 227 226 224 231 245 238
308 268 273 284 286 129 280 224 227 267 294 355 275 273 182 351 354 350 341 338 338 339 340 345 343 345 349 159 175 198 208 215 219 215 213 215 218 221 225 229 226 230 221 233
272 294 277 326 357 314 173 324 285 357 311 301 286 287 281 333 339 341 342 342 339 341 349 358 3 13 43 93 119 155 163 177 199 205 209 208 209 216 228 237 235 232 234 238
146 213 285 12 214 209 340 271 239 252 229 281 306 281 264 324 334 334 338 342 340 344 355 2 9 44 63 84 98 117 139 140 154 174 187 196 204 213 223 235 240 241 243 250
207 224 274 242 275 197 173 242 261 248 292 238 269 280 344 347 340 341 339 344 347 356 7 12 16 38 70 74 81 95 102 136 136 143 173 189 199 210 212 222 234 240 241 245
205 257 310 324 354 3 167 227 255 304 270 229 261 272 12 9 354 345 342 348 351 1 9 23 28 38 64 69 68 82 82 93 125 152 173 181 192 203 213 223 225 231 237 240
269 226 234 254 267 228 294 290 293 252 224 275 246 296 344 354 344 342 345 348 355 6 15 21 28 46 57 62 68 73 75 77 95 122 152 186 201 210 217 219 223 223 236 238
194 234 193 262 265 273 263 269 277 219 219 209 271 296 318 346 336 333 339 349 357 4 15 22 28 46 55 61 68 74 73 70 72 82 122 166 193 209 218 227 224 227 228 236
189 259 130 290 277 189 258 253 241 246 199 253 272 292 174 71 6 345 354 355 357 360 11 28 38 47 53 56 59 67 74 73 72 70 76 70 77 237 225 224 221 224 233 235
175 173 334 263 332 332 338 232 200 223 211 186 249 241 4 41 28 351 349 359 360 9 17 26 36 44 49 52 56 60 65 69 73 72 69 66 67 182 229 231 231 228 225 222
228 163 221 281 353 358 243 208 170 207 229 207 253 258 250 219 140 53 19 4 8 16 22 29 36 40 44 49 52 56 59 61 61 65 63 60 59 60 73 199 233 242 243 240
208 202 247 242 195 287 328 222 187 146 286 188 212 206 303 339 170 189 28 26 23 26 29 35 41 45 45 45 45 46 48 49 51 54 54 53 51 44 47 51 75 215 235 247
186 197 189 85 150 236 240 249 157 107 314 211 164 173 186 158 74 266 14 38 45 47 52 49 49 49 50 49 48 50 52 53 53 48 42 34 33 32 31 31 28 28 340 245
144 174 219 235 267 287 243 168 139 76 241 193 188 176 179 175 164 131 59 57 57 56 57 51 45 43 44 46 47 48 47 49 45 42 37 32 28 22 17 11 4 3 358 342
171 156 188 92 162 277 164 106 165 214 164 187 192 180 161 143 149 138 130 97 80 67 55 45 40 35 31 30 32 36 37 39 35 34 31 27 21 20 15 8 356 341 325 318
292 187 177 179 212 251 196 225 231 253 229 200 197 186 176 167 167 161 153 112 76 61 48 38 33 26 22 23 27 26 24 20 20 19 18 17 17 14 6 5 3 349 332 315
251 155 212 87 253 227 237 241 253 254 244 226 197 185 179 175 172 170 162 134 93 57 38 30 25 22 20 19 21 21 17 10 5 2 1 0 358 0 2 359 351 353 347 330
210 146 210 259 287 298 296 263 263 248 225 206 192 192 186 184 180 180 176 166 101 29 20 13 16 16 14 12 10 7 9 11 6 358 347 342 341 342 344 346 346 339 332 330
190 205 181 233 218 228 267 307 292 234 220 208 197 191 193 194 189 184 187 192 201 337 356 360 4 7 7 5 2 357 353 357 359 357 351 336 325 324 323 327 333 331 325 311
Wind_Speed_850mb
7 5 13 23 20 25 28 29 42 59 51 37 45 49 59 53 52 50 68 68 70 75 75 79 78 74 95 83 73 60 64 48 74 79 83 77 82 83 89 92 86 90 93 79
8 15 22 12 14 22 34 34 51 55 34 20 52 64 56 55 52 53 60 62 63 69 75 65 73 76 76 87 85 70 60 73 65 79 79 80 77 82 86 88 86 79 85 92
11 23 17 22 23 32 42 24 39 40 58 39 34 43 33 35 28 40 50 60 61 61 65 78 84 79 76 71 87 79 64 58 63 75 79 82 81 83 79 90 90 85 87 91
12 10 16 23 29 27 33 11 27 43 30 27 15 30 36 19 17 29 29 44 46 60 72 80 81 81 79 70 72 75 72 56 61 68 75 81 80 80 80 85 85 93 95 89
20 17 26 29 20 21 24 23 30 39 35 29 10 13 10 18 18 34 33 48 60 56 55 71 78 78 78 70 65 62 65 65 53 64 75 71 75 71 62 62 69 79 83 87
31 19 6 14 13 11 28 17 32 4 5 2 15 11 2 8 20 27 31 48 57 58 54 38 50 68 68 69 59 54 50 50 56 60 75 75 70 68 60 59 62 72 78 77
12 7 7 8 14 12 16 12 9 10 8 11 19 23 9 16 21 24 34 46 54 59 49 39 30 33 47 48 57 51 49 55 47 60 73 80 75 71 68 64 65 68 77 78
3 19 4 7 6 13 4 9 6 13 11 34 24 8 7 15 13 29 37 44 50 56 61 34 29 19 14 26 34 46 48 46 47 62 69 79 77 71 71 66 68 67 74 72
2 13 12 28 14 13 12 1 8 10 2 5 7 5 8 31 33 29 30 43 47 55 61 48 25 21 7 13 20 30 35 39 50 62 65 76 75 71 67 57 57 46 52 58
9 19 13 5 9 4 11 3 7 5 11 12 10 8 8 31 36 36 34 31 49 54 60 55 30 17 13 17 20 22 26 34 48 61 63 70 67 56 48 50 56 55 58 63
7 9 16 11 4 10 7 4 7 7 5 6 10 9 6 17 26 30 30 43 48 50 56 50 36 26 18 25 26 32 30 33 37 47 56 62 58 56 56 50 54 56 58 60
13 7 9 22 23 10 10 7 4 6 9 8 6 11 3 11 19 24 29 42 46 48 53 44 40 35 35 32 35 32 28 22 27 28 39 42 44 43 41 44 47 43 49 50
8 6 10 19 12 9 3 6 9 10 7 8 5 9 5 17 22 29 29 42 46 47 51 45 48 50 48 44 44 32 27 23 22 23 30 30 37 36 38 45 46 40 43 57
20 9 22 19 27 3 27 29 25 10 3 6 12 19 14 19 22 24 36 42 43 46 51 48 50 55 56 53 49 41 28 23 17 16 19 27 33 38 41 42 42 47 51 54
13 9 6 24 36 30 33 34 30 13 10 9 9 12 14 11 14 19 31 40 41 45 49 49 50 55 56 53 52 50 41 31 24 13 6 10 16 23 30 36 40 45 46 51
6 7 4 40 25 7 11 18 18 15 7 11 11 14 4 4 17 25 29 36 38 45 49 46 47 52 55 52 48 48 46 44 35 26 19 13 3 8 15 22 30 33 43 45
9 5 2 12 5 11 7 10 8 6 7 7 6 8 4 3 9 15 33 33 32 39 42 44 49 51 50 49 46 45 42 39 37 35 30 24 14 2 11 21 26 28 31 33
17 9 6 11 12 6 12 3 8 12 11 16 11 9 5 6 15 25 25 32 39 43 46 46 46 47 47 44 43 42 40 40 41 35 30 26 19 15 8 3 14 28 32 30
33 14 6 4 5 13 8 6 10 8 11 14 11 2 5 8 14 1 22 19 20 26 33 39 41 42 43 46 45 44 44 42 35 34 30 23 19 16 16 11 5 5 16 27
18 20 9 4 3 9 12 5 10 7 7 8 9 6 4 9 4 7 15 17 19 23 29 34 37 38 39 42 42 39 38 35 36 35 31 27 23 19 16 14 11 8 3 9
7 6 20 6 7 15 11 6 13 8 11 9 13 11 9 7 7 8 7 11 18 21 25 28 31 35 36 34 34 35 33 37 35 30 27 26 25 22 19 15 11 9 7 5
13 12 7 5 3 14 14 9 9 10 6 15 22 18 14 17 13 10 9 10 13 17 21 25 30 34 34 32 30 30 31 31 29 28 28 27 26 23 20 18 15 11 8 8
3 10 8 13 10 8 32 7 16 13 9 15 25 24 22 21 18 16 12 9 13 16 20 26 31 34 36 36 34 30 30 27 26 26 25 25 24 22 20 17 15 14 12 10
7 6 5 3 5 10 25 45 31 25 21 15 23 29 29 27 23 19 13 9 9 13 19 26 30 35 40 39 37 35 33 30 25 22 22 22 22 23 20 18 16 14 14 12
7 11 10 8 10 13 16 18 26 26 24 20 26 31 33 31 29 23 18 10 4 8 16 22 30 36 40 40 37 35 32 29 25 23 21 19 20 19 20 21 18 15 13 14
9 13 8 9 8 8 19 22 14 19 29 31 35 35 35 35 33 28 22 14 6 3 11 16 24 30 32 32 29 27 27 25 24 23 21 21 19 19 18 18 16 18 16 13
Wind_Direction_850mb
243 237 242 259 213 250 266 274 276 281 288 285 285 283 275 276 270 264 262 259 255 253 260 261 255 249 251 257 256 250 247 245 231 228 225 218 222 223 229 232 224 208 199 195
345 241 269 247 252 262 271 275 280 287 284 299 298 284 284 282 273 266 263 260 253 254 255 255 258 259 248 250 255 254 252 245 242 230 224 217 217 224 227 233 222 215 208 200
182 257 293 281 277 303 283 267 278 276 305 301 285 282 281 289 276 270 270 271 263 252 255 260 261 258 255 245 250 254 247 244 241 231 227 221 223 223 214 217 220 211 218 217
235 273 269 276 285 294 283 232 280 295 303 296 0 290 309 301 25 13 349 341 320 317 269 254 253 255 258 252 240 249 248 245 234 229 223 223 220 212 210 215 227 215 212 215
257 285 292 296 273 291 264 295 281 280 275 285 281 236 291 28 355 345 333 328 327 319 316 255 251 257 254 250 247 242 243 244 236 224 223 226 225 221 218 223 231 231 226 217
257 260 239 237 290 258 287 314 306 7 101 7 255 209 282 14 334 325 326 327 329 333 324 302 262 258 256 246 248 247 236 233 235 225 222 225 225 227 224 230 234 238 234 231
304 247 260 209 350 342 40 22 326 340 351 239 308 301 299 1 348 330 327 326 331 337 334 331 314 252 238 235 235 239 229 229 232 224 221 225 223 222 226 230 234 233 227 225
297 314 234 192 172 238 289 153 270 305 312 300 312 244 170 43 3 342 332 329 333 339 339 335 334 329 230 205 212 226 226 224 231 225 217 215 223 225 227 226 224 231 245 238
308 268 273 284 286 129 280 224 227 267 294 355 275 273 182 351 354 350 341 338 338 339 340 345 343 345 349 159 175 198 208 215 219 215 213 215 218 221 225 229 226 230 221 233
272 294 277 326 357 314 173 324 285 357 311 301 286 287 281 333 339 341 342 342 339 341 349 358 3 13 43 93 119 155 163 177 199 205 209 208 209 216 228 237 235 232 234 238
146 213 285 12 214 209 340 271 239 252 229 281 306 281 264 324 334 334 338 342 340 344 355 2 9 44 63 84 98 117 139 140 154 174 187 196 204 213 223 235 240 241 243 250
207 224 274 242 275 197 173 242 261 248 292 238 269 280 344 347 340 341 339 344 347 356 7 12 16 38 70 74 81 95 102 136 136 143 173 189 199 210 212 222 234 240 241 245
205 257 310 324 354 3 167 227 255 304 270 229 261 272 12 9 354 345 342 348 351 1 9 23 28 38 64 69 68 82 82 93 125 152 173 181 192 203 213 223 225 231 237 240
269 226 234 254 267 228 294 290 293 252 224 275 246 296 344 354 344 342 345 348 355 6 15 21 28 46 57 62 68 73 75 77 95 122 152 186 201 210 217 219 223 223 236 238
194 234 193 262 265 273 263 269 277 219 219 209 271 296 318 346 336 333 339 349 357 4 15 22 28 46 55 61 68 74 73 70 72 82 122 166 193 209 218 227 224 227 228 236
189 259 130 290 277 189 258 253 241 246 199 253 272 292 174 71 6 345 354 355 357 360 11 28 38 47 53 56 59 67 74 73 72 70 76 70 77 237 225 224 221 224 233 235
175 173 334 263 332 332 338 232 200 223 211 186 249 241 4 41 28 351 349 359 360 9 17 26 36 44 49 52 56 60 65 69 73 72 69 66 67 182 229 231 231 228 225 222
228 163 221 281 353 358 243 208 170 207 229 207 253 258 250 219 140 53 19 4 8 16 22 29 36 40 44 49 52 56 59 61 61 65 63 60 59 60 73 199 233 242 243 240
208 202 247 242 195 287 328 222 187 146 286 188 212 206 303 339 170 189 28 26 23 26 29 35 41 45 45 45 45 46 48 49 51 54 54 53 51 44 47 51 75 215 235 247
186 197 189 85 150 236 240 249 157 107 314 211 164 173 186 158 74 266 14 38 45 47 52 49 49 49 50 49 48 50 52 53 53 48 42 34 33 32 31 31 28 28 340 245
144 174 219 235 267 287 243 168 139 76 241 193 188 176 179 175 164 131 59 57 57 56 57 51 45 43 44 46 47 48 47 49 45 42 37 32 28 22 17 11 4 3 358 342
171 156 188 92 162 277 164 106 165 214 164 187 192 180 161 143 149 138 130 97 80 67 55 45 40 35 31 30 32 36 37 39 35 34 31 27 21 20 15 8 356 341 325 318
292 187 177 179 212 251 196 225 231 253 229 200 197 186 176 167 167 161 153 112 76 61 48 38 33 26 22 23 27 26 24 20 20 19 18 17 17 14 6 5 3 349 332 315
251 155 212 87 253 227 237 241 253 254 244 226 197 185 179 175 172 170 162 134 93 57 38 30 25 22 20 19 21 21 17 10 5 2 1 0 358 0 2 359 351 353 347 330
210 146 210 259 287 298 296 263 263 248 225 206 192 192 186 184 180 180 176 166 101 29 20 13 16 16 14 12 10 7 9 11 6 358 347 342 341 342 344 346 346 339 332 330
190 205 181 233 218 228 267 307 292 234 220 208 197 191 193 194 189 184 187 192 201 337 356 360 4 7 7 5 2 357 353 357 359 357 351 336 325 324 323 327 333 331 325 311